CST,Max TemperatureF,Mean TemperatureF,Min TemperatureF,Max Dew PointF,MeanDew PointF,Min DewpointF,Max Humidity, Mean Humidity, Min Humidity, Max Sea Level PressureIn, Mean Sea Level PressureIn, Min Sea Level PressureIn, Max VisibilityMiles, Mean VisibilityMiles, Min VisibilityMiles, Max Wind SpeedMPH, Mean Wind SpeedMPH, Max Gust SpeedMPH,PrecipitationIn, CloudCover, Events, WindDirDegrees
2012-11-1,48,40,32,39,30,25,100,73,40,30.05,30.00,29.95,10,9,4,17,6,25,0.00,3,,5
2012-11-2,42,37,32,30,28,25,80,69,57,30.11,30.04,30.00,10,10,7,15,10,20,0.00,3,,88
2012-11-3,48,36,24,34,30,23,100,73,50,30.20,30.16,30.11,10,10,9,7,4,,0.00,7,,156
2012-11-4,51,42,32,43,38,32,100,86,54,30.16,30.10,30.04,10,6,2,13,3,,0.02,8,Rain,67
2012-11-5,41,39,37,41,38,36,100,98,87,30.17,30.09,29.93,10,5,2,14,9,17,0.00,8,Rain,326
2012-11-6,48,42,37,39,36,34,100,79,58,30.04,29.94,29.83,10,10,6,32,17,39,0.00,6,,299
2012-11-7,50,38,26,36,31,27,100,79,47,30.13,30.06,29.97,10,10,10,17,7,12,0.00,0,,200
2012-11-8,57,46,35,37,34,32,100,70,41,29.97,29.91,29.85,10,8,1,26,14,28,0.00,0,,126
2012-11-9,57,45,33,45,40,34,100,83,55,29.93,29.84,29.70,10,7,0,21,15,26,0.00,5,Fog,74
2012-11-10,62,50,37,55,47,37,100,84,55,29.69,29.55,29.45,10,7,1,23,16,32,0.21,4,Rain,197
2012-11-11,37,28,19,36,19,12,100,77,59,30.04,29.88,29.63,10,10,8,28,20,32,0.00,4,,293
2012-11-12,32,24,17,18,15,12,86,70,51,30.30,30.16,30.03,10,10,10,24,15,33,0.00,1,,271
2012-11-13,48,32,17,30,21,12,86,67,32,30.31,30.26,30.20,10,10,10,17,7,18,0.00,3,,165
2012-11-14,51,38,24,32,29,23,100,74,43,30.26,30.20,30.13,10,9,3,10,4,16,0.00,2,,180
2012-11-15,50,36,21,34,29,18,93,74,50,30.46,30.29,30.11,10,10,7,15,9,,0.00,0,,308
2012-11-16,48,32,15,30,23,14,93,70,43,30.46,30.36,30.24,10,10,8,17,7,23,0.00,0,,145
2012-11-17,59,46,33,36,34,32,93,67,39,30.25,30.16,30.08,10,10,8,26,16,36,0.00,1,,165
2012-11-18,59,48,37,36,33,30,75,59,39,30.10,30.05,30.00,10,10,10,21,16,26,0.00,0,,169
2012-11-19,55,44,33,39,37,34,100,74,51,30.13,30.02,29.96,10,9,6,16,11,17,0.00,1,,243
2012-11-20,59,40,21,37,31,21,100,69,29,30.19,30.11,30.02,10,8,1,15,7,,0.00,0,,183
2012-11-21,69,56,42,45,39,34,76,58,33,30.02,29.88,29.71,10,10,3,26,16,38,0.00,0,,191
2012-11-22,55,42,28,45,35,18,93,70,54,30.19,29.86,29.65,10,10,9,32,18,41,0.00,3,,279
2012-11-23,28,20,12,19,12,7,79,66,51,30.43,30.35,30.19,10,10,9,31,21,45,0.00,4,Rain-Snow,316
2012-11-24,39,24,10,21,15,7,86,64,39,30.34,30.03,29.81,10,10,10,24,8,32,0.00,3,,171
2012-11-25,39,30,21,27,23,18,93,73,49,30.17,29.99,29.83,10,10,9,13,8,15,0.00,4,,327
2012-11-26,28,19,10,23,10,5,85,66,46,30.43,30.34,30.17,10,10,9,21,9,24,0.00,3,,331
2012-11-27,39,24,10,25,17,7,100,76,56,30.36,30.21,30.09,10,10,4,23,9,25,0.00,0,,226
2012-11-28,44,26,8,27,20,7,100,76,46,30.34,30.20,30.02,10,8,5,18,6,23,0.00,0,,170
2012-11-29,46,32,17,30,25,16,100,75,50,30.02,29.97,29.92,10,9,3,13,7,18,0.00,1,Rain-Snow,96
2012-11-30,44,34,23,34,29,23,100,85,61,30.09,30.01,29.93,7,6,3,14,9,16,0.00,1,,76